Snowfall_Accumulation
nan nan nan nan nan nan nan nan nan nan nan nan nan nan nan nan nan 0.0 0.0 0.0 0.0 0.0 0.0 0.0 0.0 0.0 0.0 0.0 0.0 0.0 0.0 0.0 0.0 0.0 0.0 0.0 0.0 0.0 0.0 0.0 0.0 0.0 0.0 0.0 0.0 0.1 0.2 0.0 0.0 0.0 0.0 0.0 0.0 0.0
nan nan nan nan nan nan nan nan nan nan nan nan nan nan nan nan nan nan 0.0 0.0 0.0 0.0 0.0 0.0 0.0 0.0 0.0 0.0 0.0 0.0 0.0 0.0 0.0 0.0 0.0 0.0 0.0 0.0 0.0 0.0 0.0 0.0 0.0 0.0 0.0 0.0 0.0 0.0 0.0 0.0 0.0 0.0 0.0 0.0
nan nan nan nan nan nan nan nan nan nan nan nan nan nan nan nan nan nan 0.0 0.0 0.0 0.0 0.0 0.0 0.0 0.0 0.0 0.0 0.0 0.0 0.0 0.0 0.0 0.0 0.0 0.0 0.0 0.0 0.0 0.0 0.0 0.0 0.0 0.0 0.0 0.0 0.0 0.0 0.0 0.0 0.0 0.0 0.0 0.0
nan nan nan nan nan nan nan nan nan nan nan nan nan nan nan nan nan nan 0.0 0.0 0.0 0.0 0.7 0.1 0.0 0.0 0.0 0.0 0.0 0.0 0.0 0.0 0.0 0.0 0.0 0.1 0.1 0.0 0.0 0.0 0.0 0.0 0.0 0.0 0.0 0.0 0.0 0.0 0.0 0.0 0.0 0.0 0.0 0.0
nan nan nan nan nan nan nan nan nan nan nan nan nan nan nan nan nan nan 0.0 0.0 0.0 0.1 0.9 0.5 0.0 0.0 0.0 0.0 0.0 0.0 0.0 0.0 0.0 0.0 0.2 0.2 0.0 0.0 0.0 0.0 0.0 0.0 0.0 0.0 0.0 0.0 0.0 0.0 0.0 0.0 0.0 0.0 0.0 0.0
nan nan nan nan nan nan nan nan nan nan nan nan nan nan nan nan nan 0.0 0.1 0.0 0.0 0.0 0.5 0.8 0.0 0.0 0.0 0.0 0.0 0.0 0.0 0.0 0.0 0.0 0.0 0.0 0.0 0.0 0.1 0.0 0.0 0.0 0.0 0.0 0.0 0.0 0.0 0.0 0.0 0.0 0.0 0.0 0.0 0.0
nan nan nan nan nan nan nan nan nan nan nan nan nan nan nan nan 0.0 0.0 0.0 0.0 nan 0.0 0.1 0.6 0.0 0.0 0.0 0.0 0.0 0.0 0.0 0.0 0.0 0.0 0.0 0.0 0.0 0.0 0.1 0.1 0.0 0.0 0.0 0.0 0.0 0.0 0.0 0.0 0.0 0.0 0.0 0.0 0.0 0.0
nan nan nan nan nan nan nan nan nan nan nan nan nan nan nan nan nan 0.0 0.0 nan nan 0.0 0.0 0.9 0.2 0.0 0.0 0.0 0.0 0.0 0.0 0.0 0.0 0.0 0.0 0.0 0.0 0.0 0.2 0.0 0.0 0.0 0.0 0.0 0.0 0.0 0.0 0.0 0.0 0.0 0.0 0.0 0.0 0.0
nan nan nan nan nan nan nan nan nan nan nan nan nan nan 0.0 0.0 0.0 0.0 nan nan 0.0 0.0 0.3 0.1 0.1 0.2 0.0 0.0 0.0 0.0 0.0 0.2 0.0 0.1 0.0 0.0 0.0 0.2 0.0 0.0 0.0 0.0 0.0 0.0 0.0 0.0 0.0 0.0 0.0 0.0 0.0 0.0 0.0 0.0
nan nan nan nan nan nan nan nan nan nan nan nan 0.0 0.0 3.3 0.0 nan nan 0.0 0.2 0.2 0.0 0.0 0.1 0.0 0.0 0.0 0.0 0.0 0.0 0.0 0.1 0.2 0.1 0.0 0.1 0.0 0.0 0.0 0.0 0.0 0.0 0.0 0.0 0.0 0.0 0.0 0.0 0.0 0.0 0.0 0.0 0.0 0.0
nan nan nan nan nan nan nan nan nan nan nan 0.0 0.1 0.2 0.0 nan 0.0 0.0 2.6 2.6 0.5 0.3 0.0 0.0 0.0 0.0 0.0 0.1 0.1 0.0 0.2 0.1 0.2 0.0 0.1 0.1 0.0 0.0 0.0 0.0 0.0 0.0 0.0 0.0 0.0 0.0 0.0 0.0 0.0 0.0 0.0 0.0 0.0 0.0
nan nan nan nan nan nan nan nan nan 0.0 0.0 0.0 0.0 0.0 0.0 0.0 1.3 2.8 3.0 1.5 0.6 0.0 0.0 0.0 0.0 0.0 0.0 0.0 0.0 0.3 0.2 0.2 0.0 0.0 0.4 0.1 0.0 0.0 0.0 0.0 0.0 0.0 0.0 0.0 0.0 0.0 0.0 0.0 0.0 0.0 0.0 0.0 0.0 0.0
nan nan nan nan nan nan nan nan nan nan nan 0.0 0.0 0.5 2.0 4.4 34.8 3.3 4.4 0.8 0.7 0.0 0.0 0.0 0.1 0.0 0.0 0.0 0.0 0.1 0.0 0.5 0.0 1.0 0.0 0.0 0.0 0.0 0.0 0.0 0.0 0.0 0.0 0.0 0.0 0.0 0.0 0.0 0.0 0.0 0.0 0.0 0.1 1.8
nan nan nan nan nan nan nan nan nan 0.0 0.0 1.2 3.7 37.8 5.1 0.8 0.4 0.3 0.0 0.0 0.0 0.0 0.0 0.0 0.0 0.0 0.0 0.0 0.1 0.0 0.0 0.0 0.6 0.4 0.1 0.0 0.0 0.0 0.0 0.0 0.0 0.0 0.0 0.0 0.0 0.0 0.0 0.0 0.7 1.7 2.5 2.2 2.7 2.7
nan nan nan nan nan nan nan nan nan 0.0 0.0 1.8 2.4 24.8 0.4 0.0 0.0 0.0 0.0 0.0 0.0 0.0 0.0 0.0 0.0 0.0 0.1 0.1 0.0 0.0 0.3 0.2 0.1 0.1 0.0 0.0 0.0 0.0 0.0 0.0 0.0 0.0 0.0 0.0 0.0 0.0 0.0 0.0 0.0 0.1 0.2 0.0 0.0 2.2
nan nan 0.0 nan nan nan nan nan 0.0 0.0 0.0 0.7 0.7 0.7 0.0 0.2 0.3 0.2 0.0 0.0 0.0 0.0 0.0 0.0 0.0 0.0 0.1 0.0 0.0 0.0 0.0 0.0 0.0 0.0 0.0 0.0 0.0 0.0 0.0 0.0 0.0 0.0 0.0 0.0 0.0 0.0 0.0 0.0 0.0 0.0 0.0 0.0 1.4 0.4
nan 0.0 nan nan nan nan nan 0.0 0.0 0.2 0.5 0.1 0.6 0.0 0.0 0.0 0.0 0.0 0.0 0.0 0.0 0.0 0.1 0.0 0.0 0.0 0.0 0.1 0.0 0.0 0.1 0.0 0.0 0.0 0.0 0.0 0.0 0.0 0.0 0.0 0.0 0.0 0.0 0.0 0.0 0.0 0.0 0.0 0.0 0.0 0.0 0.0 0.0 0.0
0.0 0.0 nan nan nan nan 0.0 0.1 0.7 0.7 0.3 0.2 0.9 0.1 0.0 0.0 0.0 0.0 0.0 0.0 0.0 0.0 0.0 0.0 0.0 0.0 0.0 0.0 0.0 0.0 0.0 0.0 0.0 0.0 0.0 0.0 0.0 0.0 0.0 0.0 0.0 0.0 0.0 0.0 0.0 0.0 0.0 0.0 0.0 0.0 0.0 0.0 0.0 0.0
0.0 0.0 nan nan 0.0 0.2 2.0 0.4 0.1 1.5 0.8 0.1 0.0 0.0 0.0 0.0 0.0 0.0 0.0 0.0 0.0 0.0 0.0 0.0 0.0 0.1 0.0 0.0 0.0 0.0 0.0 0.0 0.1 0.1 0.1 0.0 0.0 0.0 0.0 0.0 0.0 0.0 0.0 0.0 0.0 0.0 0.0 0.0 0.0 0.0 0.0 0.0 0.0 0.0
nan nan nan nan nan 0.4 1.5 1.4 0.0 0.0 0.4 0.4 0.1 0.1 0.0 0.1 0.0 0.0 0.0 0.0 0.0 0.0 0.2 0.2 0.1 0.0 0.0 0.0 0.0 0.0 0.0 0.0 0.0 0.1 0.2 0.1 0.0 0.0 0.0 0.0 0.0 0.0 0.0 0.0 0.0 0.0 0.0 0.0 0.0 0.0 0.0 0.0 0.0 0.0
nan nan nan 0.0 0.2 0.1 0.3 0.5 0.1 0.1 0.3 0.4 0.3 0.2 0.4 0.1 0.2 0.3 0.2 0.1 0.2 0.3 0.2 0.1 0.0 0.0 0.0 0.0 0.0 0.0 0.0 0.0 0.0 0.0 0.0 0.1 0.0 0.0 0.0 0.0 0.0 0.0 0.0 0.0 0.0 0.0 0.0 0.0 0.0 0.0 0.1 0.2 0.1 0.1
0.0 nan 0.0 0.0 0.2 0.1 0.2 0.0 0.1 0.2 0.1 0.1 0.0 0.0 0.3 0.6 0.5 0.5 0.1 0.2 0.3 0.2 0.1 0.0 0.1 0.0 0.0 0.0 0.0 0.0 0.0 0.0 0.0 0.0 0.0 0.0 0.0 0.0 0.0 0.0 0.0 0.1 0.1 0.1 0.0 0.0 0.0 0.0 0.0 0.0 0.1 0.3 0.1 0.2
nan 0.0 0.1 0.1 2.1 4.1 10.9 0.0 0.1 0.1 0.6 0.2 0.1 0.2 0.3 0.4 0.2 0.0 0.5 0.2 0.2 0.2 0.1 0.1 0.0 0.0 0.0 0.0 0.0 0.0 0.0 0.0 0.0 0.0 0.0 0.0 0.0 0.0 0.0 0.0 0.0 0.1 0.1 0.1 0.0 0.0 0.1 0.0 0.1 0.3 0.2 0.3 0.3 1.6
nan 0.3 4.7 3.1 2.6 17.2 0.0 1.0 0.0 0.0 0.0 0.3 0.6 1.3 0.1 0.1 0.0 0.3 1.4 0.3 0.2 0.0 0.1 0.0 0.0 0.0 0.0 0.0 0.0 0.0 0.0 0.0 0.0 0.0 0.0 0.0 0.0 0.0 0.0 0.0 0.0 0.0 0.0 0.0 0.0 0.1 0.2 0.4 0.1 0.2 0.9 4.9 7.9 6.6
13.5 19.7 2.8 36.0 1.0 4.3 2.6 0.5 0.2 0.1 1.3 0.2 0.9 2.9 1.7 0.3 1.9 2.9 1.6 0.8 0.3 0.2 0.1 0.0 0.0 0.0 0.0 0.0 0.0 0.0 0.0 0.0 0.0 0.0 0.0 0.0 0.0 0.0 0.0 0.0 0.0 0.0 0.0 0.1 0.4 1.1 1.4 1.4 1.3 1.5 1.1 8.0 2.0 1.5
36.6 6.6 14.2 2.7 3.8 1.1 0.5 2.9 3.4 2.8 1.0 1.4 1.6 1.9 0.3 0.6 1.6 5.0 3.3 1.5 0.4 0.2 0.6 0.3 0.1 0.0 0.0 0.0 0.0 0.0 0.0 0.0 0.0 0.0 0.0 0.0 0.0 0.0 0.1 0.2 0.2 0.2 0.0 0.1 0.4 3.0 2.0 3.6 4.7 1.2 4.5 1.5 3.7 6.1
30.7 9.5 0.4 0.0 0.6 0.3 2.0 0.9 0.0 0.7 2.9 4.3 1.7 2.7 2.5 7.9 5.3 2.8 2.5 1.9 0.7 0.3 0.1 0.0 0.0 0.0 0.0 0.0 0.0 0.0 0.0 0.0 0.0 0.0 0.0 0.0 0.0 0.0 0.0 0.1 0.1 0.1 0.0 0.1 0.3 2.7 3.4 5.2 6.1 3.1 4.9 4.4 4.8 5.9
2.0 0.5 7.7 1.3 3.0 0.5 2.3 1.5 1.1 2.1 0.9 0.8 0.9 4.5 5.0 3.9 2.9 1.9 2.0 1.6 0.9 0.4 0.1 0.0 0.0 0.0 0.0 0.0 0.0 0.0 0.0 0.0 0.0 0.0 0.0 0.0 0.0 0.0 0.0 0.0 0.1 0.0 0.1 0.5 0.7 1.8 1.2 4.1 6.0 6.7 5.8 5.8 7.5 5.8
3.0 0.9 0.8 13.0 3.0 1.1 2.2 2.4 1.8 0.8 0.8 0.7 3.5 1.7 1.1 1.2 2.2 1.9 1.8 1.9 0.7 0.3 0.2 0.4 0.4 0.3 0.2 0.1 0.1 0.1 0.1 0.1 0.0 0.3 0.7 1.0 0.8 0.4 0.2 0.2 0.2 0.2 0.3 0.7 0.3 0.5 0.8 2.2 3.7 4.9 5.3 6.5 5.9 7.4
1.6 1.1 2.9 6.6 8.9 4.2 3.7 2.7 1.9 1.0 0.1 0.6 0.6 1.0 1.8 2.3 3.2 2.6 2.3 2.3 1.7 3.1 5.8 3.2 3.3 2.1 6.0 2.3 2.2 1.2 0.5 0.9 0.3 0.6 1.9 1.4 0.5 0.4 0.5 0.7 0.7 0.8 0.6 4.5 1.6 0.7 3.1 3.2 5.7 7.4 6.6 6.9 6.7 8.5
0.7 1.4 3.1 1.2 6.6 5.8 4.7 5.1 4.1 1.1 1.1 5.0 4.0 5.2 4.3 2.9 3.4 3.4 4.0 4.5 3.3 9.6 10.1 12.0 11.4 10.7 7.9 3.8 7.3 6.3 3.9 5.5 0.8 0.2 0.3 0.5 0.6 1.0 1.8 1.5 1.3 2.1 3.0 3.2 5.8 3.3 3.5 5.2 5.5 6.7 5.0 5.1 5.9 5.7
4.2 9.3 11.8 8.6 10.3 12.1 2.4 11.4 7.5 7.1 9.4 9.9 13.5 7.6 10.2 8.6 6.5 4.7 6.6 8.6 11.0 11.7 5.4 5.9 11.6 3.9 2.8 2.2 4.6 2.1 2.4 0.9 0.9 1.0 0.5 1.2 1.6 2.2 0.7 0.8 4.8 5.0 3.6 5.1 3.9 4.4 3.4 5.2 5.3 6.3 5.3 5.2 4.8 4.5
14.4 9.5 6.6 9.6 19.4 8.8 8.1 8.3 1.6 8.3 6.3 9.2 10.7 9.4 9.2 8.3 8.6 8.7 2.2 7.1 10.3 12.4 9.4 10.1 9.1 10.5 4.2 3.3 2.3 2.5 2.7 1.9 3.1 3.6 2.2 2.7 2.0 1.7 1.3 3.9 5.9 4.2 2.0 3.5 4.6 4.1 3.9 2.3 2.9 3.3 3.9 5.4 4.9 4.7
Water_Equivalent
nan nan nan nan nan nan nan nan nan nan nan nan nan nan nan nan nan 0.00 0.00 0.00 0.00 0.00 0.00 0.00 0.00 0.00 0.00 0.00 0.00 0.00 0.01 0.00 0.00 0.00 0.00 0.01 0.00 0.00 0.00 0.00 0.00 0.00 0.01 0.00 0.00 0.02 0.05 0.00 0.00 0.00 0.00 0.00 0.00 0.00
nan nan nan nan nan nan nan nan nan nan nan nan nan nan nan nan nan nan 0.00 0.00 0.00 0.00 0.01 0.00 0.00 0.00 0.00 0.00 0.00 0.00 0.00 0.00 0.00 0.00 0.00 0.00 0.00 0.00 0.00 0.00 0.00 0.00 0.00 0.00 0.00 0.00 0.00 0.00 0.00 0.00 0.00 0.00 0.00 0.00
nan nan nan nan nan nan nan nan nan nan nan nan nan nan nan nan nan nan 0.00 0.00 0.00 0.00 0.00 0.00 0.00 0.00 0.00 0.00 0.00 0.00 0.00 0.00 0.00 0.00 0.00 0.00 0.00 0.00 0.00 0.00 0.00 0.00 0.00 0.00 0.00 0.00 0.00 0.00 0.00 0.00 0.00 0.00 0.00 0.00
nan nan nan nan nan nan nan nan nan nan nan nan nan nan nan nan nan nan 0.00 0.00 0.00 0.00 0.21 0.02 0.00 0.00 0.00 0.00 0.00 0.00 0.00 0.00 0.00 0.00 0.01 0.04 0.05 0.00 0.00 0.00 0.00 0.00 0.00 0.00 0.00 0.00 0.00 0.00 0.00 0.00 0.00 0.00 0.00 0.00
nan nan nan nan nan nan nan nan nan nan nan nan nan nan nan nan nan nan 0.00 0.00 0.00 0.03 0.27 0.09 0.00 0.00 0.00 0.00 0.00 0.00 0.00 0.00 0.00 0.00 0.09 0.08 0.00 0.00 0.00 0.00 0.00 0.00 0.00 0.00 0.00 0.00 0.00 0.00 0.00 0.00 0.00 0.00 0.00 0.00
nan nan nan nan nan nan nan nan nan nan nan nan nan nan nan nan nan 0.00 0.02 0.00 0.00 0.00 0.12 0.20 0.00 0.00 0.00 0.00 0.00 0.00 0.00 0.00 0.00 0.00 0.00 0.00 0.00 0.00 0.05 0.00 0.00 0.00 0.00 0.00 0.00 0.00 0.00 0.00 0.00 0.00 0.00 0.00 0.00 0.00
nan nan nan nan nan nan nan nan nan nan nan nan nan nan nan nan 0.00 0.00 0.00 0.00 nan 0.00 0.03 0.18 0.01 0.00 0.00 0.00 0.00 0.00 0.00 0.00 0.00 0.00 0.01 0.00 0.00 0.00 0.03 0.04 0.00 0.00 0.00 0.00 0.00 0.00 0.00 0.00 0.00 0.00 0.00 0.00 0.00 0.00
nan nan nan nan nan nan nan nan nan nan nan nan nan nan nan nan nan 0.00 0.00 nan nan 0.00 0.00 0.27 0.07 0.00 0.00 0.00 0.01 0.00 0.00 0.00 0.00 0.00 0.00 0.00 0.00 0.00 0.07 0.00 0.00 0.00 0.00 0.00 0.00 0.00 0.00 0.00 0.00 0.00 0.00 0.00 0.00 0.00
nan nan nan nan nan nan nan nan nan nan nan nan nan nan 0.00 0.00 0.01 0.00 nan nan 0.00 0.00 0.10 0.05 0.03 0.09 0.00 0.00 0.00 0.00 0.00 0.08 0.00 0.03 0.00 0.00 0.00 0.07 0.00 0.00 0.00 0.00 0.00 0.00 0.00 0.00 0.00 0.00 0.00 0.00 0.00 0.00 0.00 0.00
nan nan nan nan nan nan nan nan nan nan nan nan 0.00 0.00 1.31 0.01 nan nan 0.00 0.08 0.07 0.01 0.00 0.03 0.00 0.00 0.00 0.00 0.02 0.01 0.00 0.05 0.09 0.03 0.00 0.03 0.00 0.00 0.00 0.00 0.00 0.00 0.00 0.00 0.00 0.00 0.00 0.00 0.00 0.00 0.00 0.00 0.00 0.00
nan nan nan nan nan nan nan nan nan nan nan 0.00 0.04 0.09 0.00 nan 0.00 0.01 0.76 0.73 0.17 0.10 0.00 0.01 0.00 0.00 0.00 0.03 0.05 0.00 0.07 0.04 0.10 0.00 0.02 0.03 0.00 0.00 0.00 0.00 0.00 0.00 0.00 0.00 0.00 0.00 0.00 0.00 0.00 0.00 0.00 0.00 0.00 0.00
nan nan nan nan nan nan nan nan nan 0.00 0.00 0.00 0.00 0.00 0.00 0.00 0.41 0.75 0.89 0.39 0.15 0.00 0.00 0.00 0.00 0.00 0.00 0.00 0.01 0.12 0.06 0.09 0.00 0.00 0.17 0.04 0.00 0.00 0.00 0.00 0.00 0.00 0.00 0.00 0.00 0.00 0.00 0.00 0.00 0.00 0.00 0.00 0.00 0.00
nan nan nan nan nan nan nan nan nan nan nan 0.00 0.00 0.13 0.44 1.33 6.92 0.81 0.98 0.22 0.20 0.00 0.00 0.00 0.05 0.00 0.00 0.00 0.02 0.04 0.01 0.19 0.00 0.41 0.02 0.00 0.00 0.00 0.00 0.00 0.00 0.00 0.00 0.00 0.00 0.00 0.00 0.00 0.00 0.00 0.01 0.02 0.03 0.48
nan nan nan nan nan nan nan nan nan 0.00 0.00 0.27 0.79 6.57 1.37 0.19 0.11 0.09 0.00 0.00 0.00 0.00 0.00 0.00 0.00 0.00 0.01 0.02 0.02 0.01 0.00 0.01 0.23 0.15 0.03 0.00 0.00 0.00 0.00 0.00 0.00 0.00 0.00 0.00 0.00 0.00 0.00 0.01 0.26 0.62 0.89 0.76 0.81 0.70
nan nan nan nan nan nan nan nan nan 0.00 0.00 0.40 0.48 2.80 0.13 0.00 0.00 0.00 0.00 0.00 0.00 0.00 0.00 0.00 0.01 0.00 0.03 0.02 0.02 0.00 0.10 0.07 0.06 0.03 0.00 0.00 0.00 0.00 0.00 0.00 0.00 0.00 0.00 0.00 0.00 0.00 0.02 0.02 0.00 0.04 0.07 0.00 0.00 0.58
nan nan 0.00 nan nan nan nan nan 0.00 0.00 0.01 0.16 0.14 0.14 0.00 0.06 0.13 0.06 0.00 0.00 0.00 0.00 0.00 0.00 0.00 0.02 0.03 0.02 0.01 0.00 0.00 0.01 0.00 0.00 0.00 0.00 0.00 0.00 0.00 0.00 0.00 0.00 0.00 0.00 0.00 0.00 0.00 0.00 0.00 0.00 0.00 0.00 0.44 0.12
nan 0.00 nan nan nan nan nan 0.00 0.00 0.06 0.16 0.03 0.20 0.00 0.00 0.00 0.01 0.00 0.00 0.00 0.00 0.00 0.03 0.00 0.01 0.00 0.00 0.03 0.00 0.00 0.05 0.00 0.00 0.00 0.00 0.00 0.00 0.00 0.00 0.00 0.00 0.00 0.00 0.00 0.00 0.00 0.00 0.00 0.00 0.00 0.00 0.00 0.00 0.00
0.00 0.00 nan nan nan nan 0.01 0.02 0.24 0.23 0.08 0.06 0.31 0.02 0.00 0.00 0.02 0.00 0.00 0.00 0.00 0.00 0.00 0.00 0.00 0.01 0.00 0.00 0.01 0.00 0.00 0.00 0.00 0.00 0.00 0.00 0.00 0.00 0.00 0.00 0.00 0.00 0.00 0.00 0.00 0.00 0.00 0.00 0.00 0.00 0.00 0.00 0.00 0.00
0.00 0.00 nan nan 0.00 0.10 0.63 0.14 0.05 0.46 0.27 0.05 0.01 0.00 0.00 0.00 0.00 0.00 0.00 0.00 0.00 0.00 0.00 0.01 0.00 0.03 0.01 0.00 0.00 0.00 0.01 0.02 0.05 0.04 0.02 0.00 0.00 0.00 0.00 0.00 0.00 0.00 0.00 0.00 0.00 0.00 0.00 0.00 0.00 0.00 0.00 0.00 0.00 0.00
nan nan nan nan nan 0.15 0.33 0.45 0.00 0.02 0.14 0.14 0.04 0.04 0.01 0.03 0.00 0.00 0.00 0.00 0.00 0.00 0.06 0.08 0.04 0.00 0.00 0.00 0.00 0.00 0.00 0.00 0.00 0.03 0.07 0.05 0.01 0.00 0.00 0.00 0.00 0.00 0.00 0.00 0.00 0.00 0.00 0.00 0.00 0.00 0.00 0.00 0.00 0.01
nan nan nan 0.00 0.06 0.05 0.11 0.20 0.03 0.02 0.10 0.12 0.11 0.06 0.15 0.04 0.08 0.10 0.08 0.03 0.07 0.10 0.08 0.03 0.01 0.02 0.00 0.00 0.00 0.00 0.00 0.00 0.00 0.00 0.00 0.05 0.00 0.00 0.00 0.00 0.00 0.00 0.00 0.00 0.01 0.02 0.00 0.00 0.00 0.00 0.06 0.09 0.05 0.02
0.00 nan 0.00 0.01 0.09 0.04 0.07 0.00 0.05 0.06 0.06 0.05 0.01 0.01 0.12 0.24 0.20 0.15 0.05 0.09 0.10 0.09 0.05 0.01 0.02 0.01 0.01 0.00 0.01 0.00 0.00 0.00 0.00 0.00 0.00 0.00 0.01 0.01 0.02 0.00 0.00 0.03 0.03 0.03 0.00 0.02 0.00 0.00 0.00 0.00 0.06 0.13 0.05 0.07
nan 0.02 0.04 0.03 0.56 0.87 2.07 0.00 0.01 0.02 0.17 0.06 0.02 0.06 0.12 0.12 0.09 0.00 0.18 0.05 0.07 0.07 0.04 0.03 0.00 0.00 0.00 0.00 0.00 0.00 0.00 0.00 0.00 0.00 0.00 0.00 0.00 0.00 0.00 0.00 0.00 0.02 0.04 0.03 0.00 0.01 0.03 0.00 0.03 0.11 0.09 0.11 0.13 0.64
nan 0.09 1.41 0.85 0.59 2.87 0.02 0.33 0.00 0.00 0.00 0.11 0.19 0.29 0.03 0.04 0.01 0.12 0.38 0.09 0.07 0.01 0.02 0.00 0.00 0.00 0.00 0.00 0.00 0.00 0.00 0.00 0.00 0.00 0.00 0.00 0.00 0.00 0.00 0.00 0.00 0.00 0.00 0.00 0.00 0.05 0.06 0.16 0.02 0.08 0.36 1.95 3.15 2.50
2.16 3.45 0.96 4.42 0.26 1.46 0.83 0.13 0.04 0.04 0.34 0.06 0.20 0.65 0.65 0.12 0.53 0.75 0.38 0.20 0.10 0.08 0.06 0.01 0.00 0.00 0.00 0.00 0.00 0.00 0.00 0.00 0.00 0.00 0.00 0.00 0.00 0.00 0.00 0.00 0.00 0.00 0.00 0.06 0.15 0.43 0.57 0.56 0.53 0.61 0.42 3.20 0.73 0.54
5.02 2.58 2.94 0.68 1.33 0.33 0.15 0.84 0.98 0.96 0.34 0.36 0.31 0.38 0.12 0.23 0.39 0.98 0.57 0.28 0.14 0.09 0.23 0.11 0.05 0.00 0.00 0.00 0.00 0.01 0.00 0.00 0.00 0.00 0.00 0.00 0.00 0.00 0.02 0.06 0.07 0.07 0.00 0.03 0.15 1.20 0.81 1.45 1.86 0.45 1.79 0.59 1.23 2.45
4.28 3.06 0.10 0.01 0.17 0.09 0.72 0.37 0.00 0.24 0.72 1.14 0.37 0.59 0.74 2.09 1.48 0.46 0.49 0.38 0.19 0.14 0.05 0.01 0.01 0.01 0.00 0.02 0.00 0.00 0.00 0.00 0.00 0.00 0.00 0.00 0.00 0.00 0.00 0.05 0.03 0.03 0.00 0.06 0.13 1.09 1.36 2.10 2.43 1.26 1.96 1.75 1.91 2.37
0.45 0.10 1.57 0.34 1.08 0.12 0.73 0.45 0.36 0.56 0.15 0.15 0.27 1.16 1.46 1.05 0.57 0.32 0.36 0.32 0.21 0.11 0.03 0.01 0.00 0.00 0.00 0.00 0.00 0.00 0.02 0.01 0.00 0.00 0.00 0.00 0.00 0.00 0.01 0.00 0.03 0.00 0.04 0.18 0.29 0.72 0.48 1.66 2.38 2.67 2.32 2.31 3.01 2.31
0.70 0.21 0.20 2.04 0.71 0.25 0.62 0.72 0.51 0.18 0.13 0.17 1.25 0.49 0.24 0.20 0.39 0.34 0.37 0.36 0.17 0.10 0.09 0.14 0.15 0.10 0.07 0.06 0.06 0.03 0.05 0.04 0.01 0.12 0.26 0.40 0.31 0.17 0.07 0.06 0.08 0.10 0.11 0.27 0.10 0.19 0.31 0.88 1.47 1.96 2.13 2.59 2.38 2.94
0.40 0.26 0.75 1.41 1.45 0.81 1.08 0.76 0.65 0.37 0.04 0.15 0.14 0.19 0.30 0.41 0.57 0.49 0.48 0.45 0.41 1.17 2.33 1.28 1.31 0.84 2.39 0.91 0.90 0.47 0.21 0.35 0.12 0.25 0.77 0.57 0.21 0.17 0.19 0.27 0.29 0.30 0.26 1.81 0.63 0.27 1.05 1.27 2.03 2.96 2.63 2.63 2.66 3.21
0.17 0.43 0.98 0.29 1.49 1.81 1.62 2.01 1.63 0.42 0.44 1.83 1.33 1.73 1.21 0.62 0.71 0.62 0.74 0.87 0.68 3.62 3.95 4.81 4.55 4.28 3.18 1.53 2.91 2.51 1.57 2.19 0.30 0.08 0.11 0.18 0.24 0.40 0.70 0.62 0.54 0.83 1.19 1.29 2.33 1.32 1.40 2.08 2.21 2.67 1.83 1.74 1.97 1.92
1.36 3.11 2.68 1.63 2.51 4.10 0.94 4.51 2.98 2.69 3.65 3.45 4.32 2.79 3.50 2.77 1.56 0.99 1.42 2.32 3.25 3.92 1.78 2.27 4.65 1.53 1.12 0.89 1.83 0.84 0.79 0.37 0.37 0.40 0.21 0.49 0.62 0.89 0.28 0.32 1.91 2.01 1.45 2.04 1.57 1.75 1.34 2.08 2.04 2.41 1.96 1.74 1.57 1.38
4.97 3.18 1.98 2.40 5.08 2.46 2.51 3.06 0.56 2.88 2.11 3.01 3.51 3.10 2.98 2.30 1.75 1.86 0.47 1.93 2.88 3.44 2.65 3.48 3.38 4.13 1.68 1.34 0.90 1.00 0.93 0.75 1.17 1.17 0.73 0.91 0.66 0.59 0.53 1.56 2.35 1.69 0.79 1.40 1.83 1.64 1.55 0.86 1.06 1.23 1.40 1.93 1.66 1.45
SL_Ratio
nan nan nan nan nan nan nan nan nan nan nan nan nan nan nan nan nan nan nan nan nan nan nan nan nan nan 5.0 nan nan nan 2.5 nan nan nan nan 2.5 nan nan nan nan nan nan 2.5 nan nan 2.6 2.8 nan nan nan nan nan nan nan
nan nan nan nan nan nan nan nan nan nan nan nan nan nan nan nan nan nan nan nan nan nan 3.0 nan nan nan nan nan nan nan nan nan nan nan nan nan nan nan nan nan nan nan nan nan nan nan nan nan nan nan nan nan nan nan
nan nan nan nan nan nan nan nan nan nan nan nan nan nan nan nan nan nan nan nan nan nan nan nan nan nan nan nan nan nan nan nan nan nan nan nan nan nan 2.5 nan nan nan nan nan nan nan nan nan nan nan nan nan nan nan
nan nan nan nan nan nan nan nan nan nan nan nan nan nan nan nan nan nan nan nan nan nan 3.5 3.7 nan nan nan nan nan nan nan nan nan nan 2.5 2.4 2.5 nan 3.3 nan nan nan nan nan nan nan nan nan nan nan nan nan nan nan
nan nan nan nan nan nan nan nan nan nan nan nan nan nan nan nan nan nan nan nan nan 4.1 3.5 5.2 nan nan nan nan nan nan nan nan nan 0.0 2.5 2.5 nan 2.5 nan nan nan nan nan nan nan nan nan nan nan nan nan nan nan nan
nan nan nan nan nan nan nan nan nan nan nan nan nan nan nan nan nan nan 2.4 nan nan nan 4.4 3.9 nan nan nan nan nan nan nan nan nan nan 1.7 nan nan nan 2.5 2.1 nan nan nan nan nan nan nan nan nan nan nan nan nan nan
nan nan nan nan nan nan nan nan nan nan nan nan nan nan nan nan nan nan 2.5 nan nan nan 2.8 3.5 2.5 nan nan nan nan nan nan nan nan nan 2.5 nan nan nan 2.6 2.5 nan nan nan nan nan nan nan nan nan nan nan nan nan nan
nan nan nan nan nan nan nan nan nan nan nan nan nan nan nan nan nan nan nan nan nan nan nan 3.1 2.5 nan nan nan 2.7 nan nan nan 2.5 nan nan nan nan 2.5 2.5 nan nan nan nan nan nan nan nan nan nan nan nan nan nan nan
nan nan nan nan nan nan nan nan nan nan nan nan nan nan nan nan 2.4 nan nan nan nan nan 2.7 2.5 2.9 2.5 nan 2.5 nan nan nan 2.5 2.5 2.5 nan nan 0.0 2.5 nan nan nan nan nan nan nan nan nan nan nan nan nan nan nan nan
nan nan nan nan nan nan nan nan nan nan nan nan nan 2.5 2.5 2.5 nan nan 2.5 2.5 2.5 2.7 3.3 2.5 nan 1.7 nan nan 2.5 2.7 nan 2.5 2.5 2.4 0.0 2.5 2.5 nan nan nan nan nan nan nan nan nan nan nan nan nan nan nan nan nan
nan nan nan nan nan nan nan nan nan nan nan nan 2.5 2.5 nan nan nan 2.6 3.4 3.6 2.8 2.6 2.5 2.5 nan 5.0 nan 2.5 2.5 5.0 2.5 2.5 2.5 nan 2.5 2.5 nan nan nan nan nan nan nan nan nan nan nan nan nan nan nan nan nan nan
nan nan nan nan nan nan nan nan nan nan nan nan nan nan nan 2.5 3.2 3.8 3.4 3.8 4.0 4.0 nan nan nan nan nan nan 2.5 2.5 2.5 2.6 nan 0.0 2.5 2.6 nan nan nan nan nan nan nan nan nan nan nan nan nan nan nan nan nan nan
nan nan nan nan nan nan nan nan nan nan nan nan nan 4.2 4.6 3.3 5.0 4.2 4.5 3.6 3.3 nan nan nan 2.5 nan nan nan 2.3 2.5 2.7 2.6 2.5 2.5 2.4 2.5 nan nan nan nan nan nan nan nan nan nan nan nan nan nan 2.5 2.9 3.0 3.7
nan nan nan nan nan nan nan nan nan nan 5.0 4.3 4.6 5.8 3.7 4.2 3.8 3.9 nan nan nan nan nan nan 2.5 3.0 2.5 2.4 2.4 2.4 2.5 2.4 2.5 2.8 2.5 nan nan nan nan nan nan nan nan nan nan nan 2.5 2.6 2.9 2.8 2.8 2.9 3.3 3.8
nan nan nan nan nan nan nan nan nan nan nan 4.4 4.9 8.9 2.7 nan nan nan nan nan nan nan nan 2.1 2.5 nan 2.5 2.5 2.5 nan 2.5 2.5 2.5 2.5 nan nan nan nan nan nan nan nan nan nan nan nan 2.6 2.7 5.0 3.4 3.3 0.0 5.0 3.8
nan nan nan nan nan nan nan nan nan nan 2.6 4.5 5.0 5.3 nan 2.5 2.5 2.5 2.5 2.0 nan nan nan nan nan 2.4 2.5 2.4 2.6 nan 2.5 2.4 5.0 nan nan nan nan nan nan nan nan nan nan nan nan nan nan 2.5 3.3 nan nan nan 3.2 3.0
nan nan nan nan nan nan nan nan nan 4.2 3.2 4.2 3.0 nan nan 6.7 2.6 2.5 nan nan nan nan 2.4 nan 2.5 nan 5.0 2.6 0.0 nan 2.5 nan 2.5 3.3 nan nan nan nan nan nan nan nan nan nan nan nan nan nan nan nan nan nan nan nan
nan nan nan nan nan nan 2.5 2.5 2.8 3.1 4.2 2.7 3.0 2.5 nan nan 2.4 nan nan nan nan nan nan nan nan 2.5 2.5 2.5 2.4 nan 1.7 nan nan 2.5 nan nan nan nan nan nan nan nan nan nan nan nan nan nan nan nan nan nan nan nan
nan nan nan nan nan 2.5 3.1 2.7 2.5 3.3 2.8 2.5 2.7 nan nan nan nan nan nan nan nan nan nan 2.5 3.0 2.7 2.5 nan nan nan 2.6 2.4 2.5 2.5 2.6 nan nan nan nan nan nan nan nan nan nan nan nan nan nan nan nan nan nan nan
nan nan nan nan nan 2.6 4.5 3.1 nan 2.9 2.9 2.8 2.5 2.6 2.5 2.5 1.7 0.0 nan nan nan nan 2.5 2.9 2.6 2.5 3.0 nan nan nan nan nan nan 2.5 2.5 2.5 2.2 nan nan nan nan nan nan nan nan nan nan nan nan nan nan nan nan 2.5
nan nan nan nan 2.5 2.8 2.7 2.7 3.4 2.8 2.7 2.9 2.8 2.8 3.0 2.7 2.7 2.7 2.6 2.6 2.5 2.5 2.7 2.5 2.4 2.4 3.0 3.0 nan nan nan nan nan nan 0.0 2.5 2.1 nan nan nan nan nan nan 0.0 2.4 2.5 nan nan nan nan 2.5 2.5 2.5 2.5
nan nan nan 2.3 2.6 2.7 3.0 nan 3.0 2.6 2.6 2.7 2.9 2.8 2.6 2.5 2.6 3.0 2.7 2.5 2.8 2.7 2.6 2.5 2.4 2.5 3.1 1.7 2.5 nan nan nan nan nan nan nan 2.5 2.5 2.7 nan nan 2.5 2.5 2.4 nan 2.3 1.7 nan nan 0.0 2.5 2.5 2.5 2.5
nan 2.5 2.5 2.6 3.7 4.7 5.3 nan 5.2 2.4 3.6 2.9 2.6 2.8 2.7 3.0 2.7 2.5 2.6 2.8 2.7 2.8 2.5 2.6 2.9 nan nan nan nan nan nan nan nan nan nan nan nan nan nan nan nan 2.5 2.5 2.5 nan 2.4 2.5 5.0 2.5 2.5 2.5 2.5 2.5 2.5
nan 3.1 3.3 3.7 4.4 6.0 2.5 3.0 nan nan nan 2.8 3.0 4.6 3.0 2.5 2.5 2.6 3.8 3.0 2.7 2.7 2.6 nan nan 3.3 nan nan nan nan nan nan nan nan nan nan nan nan nan nan nan nan nan 0.0 2.5 2.5 2.5 2.5 2.5 2.5 2.5 2.5 2.5 2.6
6.3 5.7 2.9 8.1 3.8 3.0 3.2 3.6 3.6 3.3 3.8 2.7 4.4 4.5 2.6 2.5 3.6 3.9 4.3 3.9 2.7 2.5 2.5 2.4 nan nan nan nan nan nan nan nan nan nan nan nan nan 5.0 nan nan nan nan nan 2.5 2.5 2.5 2.5 2.5 2.5 2.5 2.5 2.5 2.7 2.7
7.3 2.6 4.8 3.9 2.9 3.2 3.5 3.5 3.5 3.0 2.9 3.8 5.1 4.8 2.8 2.5 4.1 5.1 5.7 5.2 2.7 2.5 2.6 2.5 2.5 nan 2.0 nan nan 2.2 nan nan nan nan nan nan nan nan 2.4 2.5 2.5 2.5 2.5 2.5 2.5 2.5 2.5 2.5 2.5 2.6 2.5 2.5 3.0 2.5
7.2 3.1 4.3 3.6 3.7 4.1 2.7 2.6 4.3 2.8 4.0 3.7 4.6 4.5 3.4 3.8 3.6 6.1 5.1 5.0 3.8 2.5 2.5 2.5 2.3 2.5 2.5 2.5 2.5 nan nan nan nan nan nan nan nan nan nan 2.5 2.4 2.5 nan 2.5 2.5 2.5 2.5 2.5 2.5 2.5 2.5 2.5 2.5 2.5
4.4 5.1 4.9 3.8 2.8 3.9 3.2 3.4 3.0 3.8 5.8 5.4 3.4 3.8 3.4 3.7 5.0 6.0 5.6 5.0 4.3 3.3 2.7 2.7 2.5 nan nan nan nan nan 2.6 2.4 nan nan nan nan nan 2.5 2.5 nan 2.4 nan 2.5 2.5 2.5 2.5 2.5 2.5 2.5 2.5 2.5 2.5 2.5 2.5
4.3 4.4 4.1 6.4 4.3 4.3 3.6 3.4 3.4 4.8 5.6 4.4 2.8 3.6 4.7 5.9 5.7 5.6 4.9 5.4 4.2 3.1 2.5 2.5 2.5 2.5 2.5 2.5 2.5 2.4 2.5 2.5 2.4 2.6 2.5 2.5 2.5 2.5 2.5 2.5 2.5 2.5 2.5 2.5 3.0 2.7 2.6 2.5 2.5 2.5 2.5 2.5 2.5 2.5
4.0 4.2 3.9 4.7 6.1 5.2 3.4 3.5 2.9 2.8 3.7 4.0 4.3 5.3 6.0 5.7 5.6 5.3 4.8 5.1 4.3 2.6 2.5 2.5 2.5 2.5 2.5 2.5 2.5 2.5 2.5 2.5 2.5 2.5 2.5 2.5 2.5 2.5 2.5 2.5 2.5 2.5 2.5 2.5 2.5 2.5 3.0 2.5 2.8 2.5 2.5 2.6 2.5 2.6
4.0 3.2 3.2 4.1 4.4 3.2 2.9 2.5 2.5 2.5 2.5 2.7 3.0 3.0 3.6 4.7 4.7 5.4 5.4 5.2 4.9 2.6 2.6 2.5 2.5 2.5 2.5 2.5 2.5 2.5 2.5 2.5 2.5 2.5 2.5 2.5 2.5 2.5 2.5 2.5 2.5 2.5 2.5 2.5 2.5 2.5 2.5 2.5 2.5 2.5 2.7 2.9 3.0 3.0
3.1 3.0 4.4 5.3 4.1 3.0 2.5 2.5 2.5 2.6 2.6 2.9 3.1 2.7 2.9 3.1 4.2 4.7 4.7 3.7 3.4 3.0 3.0 2.6 2.5 2.6 2.5 2.5 2.5 2.5 3.0 2.5 2.5 2.5 2.5 2.5 2.5 2.5 2.5 2.5 2.5 2.5 2.5 2.5 2.5 2.5 2.5 2.5 2.6 2.6 2.7 3.0 3.1 3.2
2.9 3.0 3.3 4.0 3.8 3.6 3.2 2.7 2.8 2.9 3.0 3.1 3.1 3.0 3.1 3.6 4.9 4.7 4.7 3.7 3.6 3.6 3.5 2.9 2.7 2.5 2.5 2.5 2.5 2.5 2.9 2.5 2.6 3.0 3.0 3.0 3.0 3.0 2.5 2.5 2.5 2.5 2.5 2.5 2.5 2.5 2.5 2.7 2.7 2.7 2.8 2.8 2.9 3.3